Location: Peebles
(55.6412°N, 3.1714°W)
Time: 15:59:57
(UTC+01:00)

ERBS - Pass Details

Date: 26 September 2021
Orbit: 401 x 405 km, 57.0° (Epoch: 17 October)

Event Time Altitude Azimuth Distance (km) Brightness Sun altitude
Rises 20:34:44 0° 276° (W) 2,338 7.8 -13.9°
Reaches altitude 10° 20:36:49 10° 279° (W) 1,476 6.4 -14.2°
Maximum altitude 20:40:06 67° 4° (N) 446 2.4 -14.6°
Enters shadow 20:41:34 30° 79° (E) 773 3.1 -14.8°
